RH
22 22 21 19 18 17 16 16 16 17 17 18 19 20 20 20 19 19 18 18 20 22 25 29 31 32 31 26 21 16 12 10 10 10 10 10 11 11 12 13 14 15 15 16 17 17 18 18 18 18 18 18 18 18 18 18 17 17 17 16 16 15 15 15 14 14 14 14 14 14 14 13 13 13 13 13 13 12 12 12 11 11 11 10 10 9
22 21 20 19 18 17 16 16 17 18 18 20 20 21 21 20 19 18 18 19 21 24 28 31 33 32 29 23 18 14 11 10 10 10 10 11 11 12 13 14 15 15 16 17 18 18 18 19 19 19 19 19 18 18 18 18 17 17 17 16 16 15 15 15 14 14 14 14 14 14 14 14 14 13 13 13 13 12 12 12 11 11 10 10 9 9
22 21 19 18 18 17 17 17 18 18 19 21 21 21 20 19 18 18 18 20 23 26 30 33 33 30 26 20 16 12 10 10 10 10 11 11 12 13 14 14 15 16 17 18 18 19 19 19 20 19 19 19 19 18 18 18 17 17 16 16 15 15 15 15 14 14 14 14 14 14 14 14 14 14 13 13 13 12 12 12 11 10 10 9 9 8
21 20 19 18 17 17 17 18 18 19 20 21 22 21 20 18 17 18 19 22 25 29 32 33 32 28 22 17 14 11 10 10 10 11 11 12 13 14 14 15 16 17 18 19 19 20 20 20 20 20 20 19 19 19 18 18 17 17 16 16 15 15 15 15 14 14 14 14 14 14 14 14 14 14 13 13 13 12 12 11 11 10 9 9 8 8
21 19 18 18 17 17 18 18 19 20 21 22 22 21 19 18 17 18 20 24 28 31 34 33 30 25 19 15 12 11 10 10 11 11 12 13 13 14 15 16 17 18 19 20 20 21 21 21 21 20 20 20 19 19 18 18 17 17 16 16 15 15 15 15 15 15 15 15 15 15 15 14 14 14 14 13 13 12 11 11 10 10 9 8 8 7
20 19 18 18 18 18 19 19 20 21 23 23 22 20 18 17 18 20 23 27 31 33 34 31 27 22 17 14 12 11 11 11 11 12 13 13 14 15 16 17 18 19 20 21 21 21 21 21 21 21 20 20 19 19 18 18 17 17 16 16 15 15 15 15 15 15 15 15 15 15 15 15 14 14 14 13 12 12 11 10 10 9 8 8 7 7
19 18 18 18 18 19 20 20 21 22 23 23 21 19 17 18 19 22 26 30 33 34 33 29 25 20 15 13 11 11 11 11 12 13 13 14 15 16 17 18 19 20 21 22 22 22 22 21 21 21 20 20 19 19 18 18 17 17 16 16 16 15 15 15 15 15 15 15 15 15 15 15 15 14 14 13 12 11 10 10 9 9 8 7 7 7
19 18 18 19 19 20 21 21 22 23 23 21 19 17 16 17 20 25 29 33 35 34 31 27 22 18 14 12 11 11 12 12 13 13 14 15 16 17 18 19 20 21 22 22 22 22 22 22 21 21 20 20 19 19 18 18 17 17 16 16 16 16 16 16 16 16 16 16 16 16 15 15 15 14 13 13 12 11 10 10 9 8 8 7 7 6
19 19 19 20 20 21 22 23 23 23 22 20 18 15 14 16 21 27 34 36 36 34 29 24 19 16 13 12 12 12 12 13 13 14 15 16 17 18 19 20 21 22 23 23 23 23 22 22 21 21 20 20 19 18 18 17 17 17 16 16 16 16 16 16 16 16 16 16 16 16 15 15 14 14 13 12 11 10 10 9 8 8 7 7 6 6
20 20 20 21 21 22 23 24 24 23 22 19 17 15 13 15 22 30 39 40 37 32 27 21 17 14 13 12 12 12 13 13 14 15 16 17 18 19 20 22 23 23 23 23 23 23 22 22 21 21 20 20 19 18 18 17 17 17 17 17 17 17 17 17 16 16 16 16 16 16 15 15 14 13 13 12 11 10 9 9 8 7 7 7 6 6
20 21 21 22 23 23 24 25 25 23 21 18 16 15 14 17 25 33 42 41 36 30 24 19 16 14 13 12 13 13 13 14 15 16 17 18 19 20 22 23 24 24 24 24 23 23 22 22 21 21 20 19 19 18 18 17 17 17 17 17 17 17 17 17 17 17 17 16 16 16 15 15 14 13 12 11 10 10 9 8 8 7 7 6 6 6
21 22 23 23 23 24 25 26 25 22 20 17 15 14 13 20 28 37 43 39 33 26 20 17 15 13 13 13 13 14 14 15 16 17 18 19 21 22 23 24 24 24 24 24 24 23 22 22 21 20 20 19 19 18 18 18 17 17 17 17 17 17 17 17 17 17 17 17 16 16 15 14 13 12 11 11 10 9 9 8 8 7 7 6 6 6
23 23 23 23 24 25 26 26 24 21 19 16 14 14 16 24 34 41 45 37 30 23 18 16 14 13 13 13 14 15 15 16 17 18 19 21 22 23 24 25 25 25 25 24 24 23 22 22 21 20 20 19 19 18 18 18 18 18 18 18 18 18 18 18 17 17 17 16 16 15 14 14 13 12 11 10 10 9 8 8 7 7 7 6 6 6
23 24 24 24 25 26 26 24 21 18 16 14 12 13 18 29 39 45 43 34 26 20 17 15 14 14 14 14 15 15 16 17 18 20 21 23 24 25 25 25 25 25 25 24 24 23 22 21 21 20 20 19 19 18 18 18 18 18 18 18 18 18 18 18 17 17 17 16 15 15 14 13 12 12 11 10 10 9 8 8 7 7 7 6 6 6
24 24 24 25 26 25 24 22 19 16 14 12 13 17 25 37 44 45 38 29 23 19 16 15 15 15 15 15 16 17 17 18 20 22 23 24 25 26 26 26 26 26 25 24 24 23 22 21 21 20 20 19 19 18 18 18 18 18 18 18 18 18 18 17 17 16 16 16 15 14 14 13 12 11 11 10 9 9 8 7 7 7 7 6 6 6
24 24 25 25 25 24 22 19 17 14 11 11 15 22 34 45 47 43 32 25 20 18 16 15 15 15 16 17 17 18 19 20 22 23 25 26 26 26 26 26 26 26 25 25 24 23 22 21 21 20 20 19 19 18 18 18 18 18 18 18 18 18 17 17 16 16 16 15 15 14 13 13 12 11 10 10 9 8 8 7 7 7 6 6 6 6
24 25 26 25 23 22 20 17 14 11 10 12 19 30 43 48 44 36 27 22 19 17 16 16 16 16 17 18 19 19 20 21 23 25 26 27 27 27 27 27 26 26 26 25 24 23 22 21 21 20 20 19 19 18 18 18 18 18 18 18 18 17 17 16 16 16 15 15 14 14 13 12 12 11 10 10 9 8 7 7 7 6 6 6 6 6
25 26 25 23 21 19 16 13 11 9 9 17 28 41 49 46 39 31 24 21 19 17 17 17 17 18 19 20 21 22 22 23 24 26 27 28 28 28 27 27 27 26 26 25 23 23 22 21 21 20 20 19 19 18 18 18 18 18 18 18 17 17 16 16 16 15 15 14 14 13 13 12 11 11 10 9 8 8 7 7 6 6 6 6 6 6
26 26 24 21 18 16 13 10 9 10 16 29 41 48 49 41 34 27 23 21 19 18 17 18 18 19 20 22 23 24 24 25 26 27 28 29 29 29 28 28 27 26 26 24 23 22 22 21 21 20 20 19 19 18 18 18 18 18 18 18 17 17 16 16 16 15 15 14 13 13 12 12 11 10 9 9 8 7 7 6 6 6 6 6 6 6
26 25 22 18 15 13 11 11 15 22 31 40 45 46 42 35 29 26 23 21 19 18 18 19 20 21 22 24 25 25 26 26 27 28 29 29 30 29 29 28 27 26 25 24 23 23 22 22 21 20 20 19 19 19 18 18 18 18 18 18 17 17 16 16 15 15 14 14 13 13 12 11 10 10 9 8 7 7 6 6 6 6 6 6 6 7
25 21 17 14 12 12 14 18 26 34 40 44 44 41 36 31 28 26 24 21 20 19 20 21 22 23 24 26 26 27 27 27 28 29 29 30 30 30 29 28 27 26 25 24 24 23 22 22 21 21 20 19 19 19 19 19 19 18 18 18 17 17 16 16 15 15 14 14 13 12 11 11 10 9 8 8 7 7 6 6 6 6 6 6 7 8
20 16 13 13 13 15 21 29 36 41 43 43 40 36 32 29 27 26 23 21 20 21 21 23 24 25 26 27 28 28 28 28 29 30 30 31 31 30 29 28 27 26 26 25 24 23 23 22 22 21 20 20 20 19 19 19 19 18 18 18 17 17 16 16 15 15 14 13 13 12 11 10 10 9 8 7 7 6 6 6 6 6 6 7 8 8
16 13 12 15 19 25 32 38 42 43 44 40 36 33 31 29 27 25 22 21 22 23 24 25 26 27 27 28 28 29 29 29 30 30 31 31 31 31 30 28 27 26 26 25 24 24 23 23 22 22 21 21 20 20 20 19 19 19 18 18 18 17 17 16 15 15 14 13 12 12 11 10 9 8 8 7 6 6 6 6 6 6 7 8 9 10
15 15 18 23 28 34 39 43 44 43 41 37 34 32 31 29 26 24 22 23 23 25 26 27 27 28 29 29 29 30 30 31 31 32 32 31 31 31 29 28 27 26 26 25 24 24 24 23 23 23 22 21 21 21 20 20 19 19 19 18 18 17 17 16 15 15 14 13 12 11 10 10 9 8 7 7 6 6 6 6 6 7 7 9 10 11
18 22 27 31 36 39 43 43 43 41 37 34 33 32 31 28 25 24 24 25 26 26 27 28 28 29 30 30 31 31 32 32 33 33 32 32 31 30 29 28 27 26 26 25 24 24 24 24 24 24 23 22 22 21 21 20 20 19 19 18 18 17 17 16 15 14 14 13 12 11 10 9 9 8 7 6 6 6 5 6 6 7 8 10 11 12
25 29 34 37 41 43 44 43 41 38 34 33 32 31 29 27 26 25 26 27 27 28 28 29 29 30 31 31 32 33 34 34 34 34 33 32 31 30 29 27 26 26 25 25 24 25 25 25 25 25 24 23 23 22 21 21 20 20 19 19 18 18 17 16 15 14 14 13 12 11 10 9 8 7 7 6 6 5 5 6 7 8 9 10 11 12
31 35 39 42 44 44 44 41 38 35 34 33 32 30 28 27 27 28 29 29 29 29 29 30 30 31 32 33 34 35 35 35 35 34 33 31 30 29 28 27 26 25 25 25 25 25 26 26 26 25 25 24 23 23 22 21 21 20 20 19 18 18 17 16 15 14 14 13 12 11 10 9 8 7 6 6 5 5 6 7 8 9 10 11 11 13
38 41 44 45 45 44 42 39 36 35 34 33 31 30 29 29 29 30 30 30 30 30 30 31 32 33 34 35 36 36 36 36 35 33 32 31 29 28 27 26 25 25 25 25 25 26 26 27 27 26 26 25 24 23 23 22 22 21 20 20 19 18 17 16 15 14 13 12 11 10 9 8 7 6 6 5 5 5 6 7 8 9 10 11 12 14
43 45 46 46 45 43 40 37 36 35 34 33 31 30 30 31 31 31 31 31 31 31 32 33 34 35 36 37 38 37 37 35 34 32 31 30 29 28 27 26 26 25 25 25 26 27 28 28 27 27 26 26 25 24 23 23 22 22 21 20 20 18 18 17 16 15 13 12 11 10 9 8 7 6 5 5 5 6 6 7 8 9 10 12 14 17
47 47 47 46 44 42 39 37 36 35 34 33 32 32 32 32 32 32 32 32 32 33 34 35 37 38 38 38 38 37 36 35 33 31 30 29 28 27 27 26 26 26 26 26 27 28 29 29 29 28 27 26 26 25 24 24 23 23 22 21 20 19 18 17 16 15 13 12 11 10 8 7 6 6 5 5 5 6 6 7 9 10 12 15 18 21
49 48 47 45 43 41 39 37 36 35 34 34 34 34 33 33 33 32 32 33 34 35 37 38 39 40 39 38 37 36 35 34 31 29 28 28 28 27 27 27 27 27 27 28 28 29 30 30 30 29 28 27 26 26 25 25 25 24 23 22 21 20 19 17 16 15 13 12 10 9 8 7 6 5 5 5 5 6 6 8 10 13 16 20 24 27
49 48 47 45 43 41 39 37 36 35 35 35 35 35 34 34 33 33 34 35 37 39 40 41 40 39 38 36 35 34 33 32 30 28 28 28 28 28 28 28 29 29 29 29 29 30 30 31 31 31 29 28 27 27 26 26 26 25 24 23 22 20 19 18 16 14 13 11 10 9 8 6 6 5 5 5 5 6 7 10 13 18 23 26 29 31
50 49 47 44 42 40 39 38 37 37 37 36 36 35 34 34 35 35 37 39 41 41 42 41 39 37 35 34 32 31 31 30 28 27 27 28 29 29 30 30 30 30 30 31 31 31 31 31 31 31 30 29 28 28 27 27 26 26 25 23 22 20 19 17 16 14 12 11 10 8 7 6 5 5 4 5 5 7 9 13 18 23 29 32 33 33
50 48 46 44 42 41 40 39 39 38 38 37 36 35 35 36 38 40 42 43 43 42 41 38 36 35 33 32 31 30 30 29 28 27 28 29 31 32 32 32 32 32 31 32 32 32 33 32 32 31 31 30 29 29 28 28 27 26 25 23 22 20 19 17 15 13 12 10 9 7 6 5 5 4 4 5 6 8 12 17 23 28 33 34 34 32
49 47 45 44 43 42 42 41 40 39 38 37 36 37 38 41 43 44 45 44 42 40 37 35 33 32 31 30 29 29 30 29 28 28 29 31 33 34 34 34 33 33 32 32 33 33 33 33 33 32 31 31 30 30 29 28 27 26 25 23 21 19 18 16 14 12 11 9 8 7 6 5 4 4 4 5 8 11 16 22 27 32 34 33 31 27
49 47 46 45 44 43 43 41 40 38 38 38 39 41 43 45 46 46 44 42 39 36 33 31 30 29 28 28 28 29 29 29 30 31 32 34 35 35 35 35 34 34 33 33 34 34 34 34 33 33 31 31 31 31 30 29 28 26 24 22 20 18 17 15 13 11 9 8 7 6 5 4 4 4 5 7 11 16 22 27 31 33 32 29 26 22
49 48 47 46 45 43 42 40 39 39 41 43 45 46 48 47 46 43 40 37 35 32 30 29 27 26 26 26 26 27 29 30 31 33 35 36 36 37 37 36 35 34 34 34 35 35 35 34 34 33 32 31 31 31 30 29 27 25 23 21 19 17 15 13 11 10 8 7 6 5 4 4 4 5 7 10 15 21 26 30 31 30 28 24 20 17
50 49 48 46 44 42 41 41 42 44 46 48 49 49 48 45 42 39 35 33 31 29 28 27 26 26 26 26 26 28 29 31 34 35 37 38 38 38 37 37 36 35 35 35 36 36 35 35 34 33 32 32 31 31 30 28 26 24 22 20 18 16 14 12 10 8 7 6 5 4 4 4 5 7 10 15 21 26 30 30 29 26 22 19 16 15
50 48 46 44 43 42 43 45 48 49 51 50 49 46 43 40 36 34 31 29 28 27 26 26 26 26 27 28 29 30 32 34 36 38 39 40 40 39 38 37 37 36 36 36 37 36 36 35 33 32 32 32 31 30 29 26 24 22 21 19 17 15 13 10 8 7 6 5 4 4 4 5 7 11 16 21 26 29 30 28 24 21 18 15 14 14
48 45 44 44 45 47 50 51 52 52 51 48 44 41 37 34 32 29 28 26 25 25 25 25 26 28 29 31 32 34 35 37 39 41 42 42 42 40 39 38 37 37 37 37 37 37 36 34 33 32 32 31 30 29 27 25 23 21 20 18 16 14 11 9 7 6 5 4 4 4 5 8 11 16 22 26 29 29 27 23 19 17 15 15 15 15
46 46 47 49 51 54 55 55 53 50 46 42 38 35 32 29 27 26 25 24 24 24 25 27 29 31 33 34 36 37 39 40 42 43 44 44 43 42 40 38 38 38 38 38 37 36 35 33 32 32 31 30 29 28 26 24 22 20 18 16 14 12 10 8 6 5 4 4 5 6 9 12 17 22 27 29 28 26 22 18 16 15 15 16 17 18
50 52 54 56 58 58 56 53 49 44 40 36 33 30 27 25 24 23 22 23 24 26 28 30 33 35 38 39 40 41 42 43 44 45 46 45 44 42 40 39 39 38 38 38 37 36 35 33 32 31 31 29 28 27 25 23 21 19 17 15 13 11 9 7 5 5 5 5 7 10 14 19 23 26 29 27 25 21 17 15 15 15 16 18 19 20
57 60 61 61 59 56 51 46 42 37 34 30 27 25 23 22 21 22 22 24 26 28 31 34 37 40 43 45 45 45 45 46 47 48 48 46 44 43 41 40 39 39 39 38 37 36 35 33 32 31 30 28 27 26 24 22 20 18 16 13 11 9 7 5 4 5 5 8 11 16 21 24 27 28 27 23 19 16 14 14 15 17 19 20 21 23
64 64 62 58 54 48 43 39 35 31 28 25 23 21 20 21 21 22 24 26 29 32 35 38 41 44 46 48 49 50 50 50 50 50 49 47 45 43 41 41 40 40 39 38 37 36 35 34 32 31 29 27 26 24 23 21 19 17 14 12 9 7 5 4 4 5 7 11 17 22 26 27 27 26 23 19 15 13 13 14 17 19 22 24 26 28
65 61 56 51 45 40 36 32 29 26 23 21 20 20 20 22 23 25 27 30 33 36 39 42 45 47 49 50 52 54 55 54 52 51 49 47 45 43 42 41 41 41 40 39 37 35 34 33 32 30 29 27 25 23 21 19 17 15 12 10 7 5 4 4 5 8 11 16 21 26 28 27 25 22 18 15 13 12 13 15 18 22 25 27 30 35
58 52 46 41 37 32 29 26 24 22 20 19 19 20 22 24 26 29 31 34 36 40 43 46 49 51 52 53 55 57 58 58 55 52 49 47 45 44 43 42 42 41 40 39 37 35 34 32 30 29 28 26 25 22 20 17 15 13 10 8 6 4 4 6 9 12 17 22 25 27 27 25 22 18 14 12 11 12 13 17 22 26 27 29 34 39
47 42 37 33 29 26 23 21 20 19 18 19 21 23 25 28 30 32 35 38 41 44 48 51 53 54 55 56 58 59 59 58 56 54 50 47 45 44 43 43 43 42 41 39 37 35 33 32 30 28 26 25 23 21 18 16 13 11 8 6 5 4 5 8 12 17 21 25 27 27 25 21 18 15 12 11 11 12 14 20 26 30 31 34 38 43
38 34 30 26 23 20 19 18 18 18 19 21 23 26 29 32 34 37 39 43 46 49 52 55 56 58 58 59 60 60 59 57 56 54 51 48 45 44 44 44 43 43 41 39 36 34 33 31 29 27 25 23 20 18 16 14 11 9 7 5 4 5 7 11 15 20 24 27 27 25 22 18 15 13 12 11 12 13 15 22 29 35 36 39 43 47
31 27 23 20 18 17 17 17 18 20 21 24 26 30 33 36 39 42 44 47 50 53 56 58 59 59 60 60 61 61 60 58 56 53 50 47 46 45 45 45 44 43 41 38 36 34 32 31 28 26 24 21 18 16 14 12 10 7 5 4 5 7 10 14 19 23 27 27 25 22 18 15 14 13 12 13 13 14 16 24 31 37 40 43 47 50
24 21 18 17 17 17 17 19 20 23 25 28 31 34 38 41 44 47 50 52 54 56 58 59 60 60 60 60 61 61 60 58 55 53 50 47 46 45 45 46 45 43 41 38 36 34 32 30 28 26 22 19 16 14 12 10 8 6 4 5 7 10 14 18 23 26 27 26 22 19 16 14 14 14 15 15 15 16 19 27 34 40 44 47 50 53
18 17 17 17 17 18 19 22 24 27 30 34 37 40 43 46 49 52 54 55 57 58 59 60 61 61 61 61 61 61 60 58 55 52 49 47 47 46 47 47 45 43 40 37 35 33 31 29 27 25 21 18 14 11 9 8 6 5 5 6 10 14 19 23 26 27 26 23 20 17 15 15 16 17 18 18 18 18 22 30 38 44 48 50 53 55
Wind_Speed
50 51 51 52 53 54 55 55 56 56 56 56 56 55 54 53 53 52 52 51 51 50 49 48 47 46 46 45 44 44 43 43 43 43 43 44 44 44 45 45 46 47 48 49 50 51 52 53 54 54 55 56 57 57 58 58 59 59 60 60 61 61 62 62 63 64 65 66 66 67 68 69 70 70 71 72 72 73 73 74 74 75 75 75 75 75
51 52 52 53 54 55 56 56 56 56 56 56 56 55 54 53 52 52 52 51 50 49 49 48 47 46 46 45 44 44 44 44 44 44 44 44 44 45 45 46 47 48 49 50 51 52 53 54 55 55 56 57 57 58 58 59 59 60 60 61 61 62 63 63 64 65 66 66 67 68 69 70 71 71 72 73 73 74 74 75 75 75 75 75 76 76
52 52 53 54 55 55 56 57 57 57 56 56 55 54 53 52 52 52 52 51 50 49 48 47 47 46 46 45 45 44 44 44 44 44 44 45 45 45 46 47 48 49 50 51 52 53 54 55 55 56 57 58 58 59 59 60 60 61 61 62 62 63 63 64 65 66 66 67 68 69 70 71 71 72 73 73 74 74 75 75 75 75 75 76 76 76
53 53 54 55 55 56 56 57 57 57 56 55 55 54 53 52 52 52 51 51 50 49 48 47 46 46 46 45 45 45 44 44 44 44 45 45 45 46 47 48 49 50 51 52 53 54 55 56 56 57 58 58 59 59 60 60 61 61 62 63 63 64 64 65 66 66 67 68 69 70 71 71 72 73 74 74 74 75 75 75 75 75 76 76 76 76
54 54 55 56 56 56 57 57 57 57 56 55 54 53 52 52 52 52 51 50 49 49 48 47 47 46 46 46 45 45 45 45 45 45 45 45 46 47 48 49 50 51 52 53 54 55 55 56 57 58 59 59 60 60 61 61 62 62 63 63 64 64 65 66 66 67 68 69 70 70 71 72 73 74 74 75 75 75 75 75 75 75 76 76 76 77
55 55 56 56 56 57 57 57 57 56 55 54 54 53 52 52 52 52 51 50 49 48 48 47 47 46 46 46 45 45 45 45 45 45 46 46 47 48 49 50 51 52 53 54 55 55 56 57 58 59 59 60 60 61 61 62 63 63 64 64 65 65 66 67 67 68 69 70 70 71 72 73 74 74 75 75 75 75 75 75 75 75 76 76 76 77
56 56 56 56 57 57 57 57 57 56 55 54 53 53 52 52 52 51 50 50 49 48 48 47 47 46 46 46 46 45 45 45 46 46 46 47 48 49 50 50 51 52 53 54 55 56 57 58 59 59 60 60 61 62 62 63 63 64 65 65 66 66 67 68 68 69 70 71 71 72 73 74 74 75 75 75 75 74 75 75 75 75 76 76 77 77
57 57 57 57 57 57 57 57 56 55 54 54 53 53 53 52 51 51 50 49 49 48 47 47 47 47 46 46 46 46 45 46 46 47 47 48 49 49 50 51 52 53 54 55 56 57 58 59 59 60 61 61 62 62 63 64 64 65 65 66 67 67 68 69 69 70 71 71 72 73 74 74 74 75 75 75 74 74 75 75 75 75 76 76 77 77
57 57 57 57 57 57 57 57 56 55 54 53 53 53 52 52 51 51 50 49 48 48 47 47 47 47 46 46 46 46 46 46 46 47 48 49 50 50 51 52 53 54 55 56 57 58 58 59 60 61 61 62 62 63 64 64 65 66 66 67 68 68 69 70 70 71 71 72 73 73 74 74 74 75 74 74 74 74 74 75 75 75 76 76 77 77
57 57 58 58 57 57 56 56 56 55 54 53 53 53 52 52 51 50 50 49 48 48 47 47 47 47 47 46 46 46 46 46 47 48 49 49 50 51 52 53 54 55 55 56 57 58 59 60 61 61 62 62 63 64 64 65 66 66 67 68 69 69 70 70 71 72 72 73 73 74 74 74 74 74 74 74 74 74 74 75 75 75 76 76 77 77
58 58 58 58 57 57 56 56 55 55 54 54 53 53 53 51 51 50 49 49 48 48 47 47 47 47 47 47 46 46 46 47 47 48 49 50 51 52 53 53 54 55 56 57 58 59 60 61 61 62 62 63 64 64 65 66 66 67 68 69 69 70 71 71 72 72 72 73 73 74 74 74 74 74 74 74 74 74 74 75 75 75 76 76 77 77
58 58 58 57 57 57 56 56 55 54 54 54 54 53 52 51 50 49 49 48 48 47 47 47 47 47 47 47 46 46 47 47 48 49 50 51 52 52 53 54 55 56 57 58 59 60 61 61 62 62 63 64 64 65 66 66 67 68 69 69 70 71 71 72 72 72 73 73 73 73 74 74 74 74 74 74 74 74 75 75 75 75 76 76 77 78
58 58 57 57 57 56 56 55 55 55 54 54 53 53 52 51 50 49 48 48 48 47 47 47 47 47 47 47 47 47 47 48 48 50 51 52 52 53 54 54 55 56 57 59 60 60 61 62 62 63 63 64 65 66 66 67 68 68 69 70 70 71 71 72 72 72 73 73 73 73 73 74 74 74 74 74 74 75 75 75 75 76 76 77 78 78
58 57 57 57 56 56 55 55 55 55 55 54 53 52 51 50 49 48 48 48 47 47 47 47 47 48 48 47 47 47 47 48 49 50 51 52 53 54 54 55 56 57 58 59 60 61 62 62 63 63 64 65 65 66 67 67 68 69 69 70 71 71 71 72 72 72 73 73 73 73 73 74 74 74 74 74 75 75 75 75 76 76 77 78 78 79
57 57 56 56 56 56 55 55 55 55 54 54 53 52 51 50 49 48 48 47 47 47 46 47 47 48 48 48 48 48 48 48 49 50 51 52 53 54 55 55 56 57 59 60 61 61 62 63 63 64 64 65 66 66 67 68 68 69 69 70 70 71 71 71 72 72 73 73 73 74 74 74 74 74 74 75 75 75 75 76 76 77 78 78 79 80
57 56 56 56 56 55 55 55 55 54 54 53 52 51 50 49 48 48 47 47 47 46 46 47 47 48 48 49 49 48 48 49 49 50 51 53 54 55 55 56 57 58 59 60 61 62 62 63 63 64 65 65 66 66 67 67 68 69 69 69 70 70 70 71 71 72 73 73 74 74 74 75 75 75 75 75 75 76 76 76 77 78 78 79 80 81
56 56 56 56 56 55 55 55 54 54 53 52 51 50 49 48 48 47 47 47 46 46 46 46 47 47 48 49 49 49 49 49 50 50 51 53 54 55 56 56 57 58 59 60 61 62 62 63 63 64 64 65 65 66 66 67 68 68 69 69 69 70 70 71 72 72 73 74 74 75 75 75 75 76 76 76 76 76 77 77 78 78 79 80 81 82
56 56 55 55 55 55 55 54 54 53 52 51 50 49 48 48 47 47 47 46 46 46 46 46 47 47 48 49 50 50 50 50 50 50 51 52 54 55 56 57 58 59 59 60 61 62 62 62 63 63 64 64 65 65 66 67 67 68 68 69 69 69 70 71 72 73 74 74 75 75 76 76 76 76 76 77 77 77 77 78 79 79 80 81 82 83
56 55 55 55 55 55 54 54 53 52 50 49 49 48 48 47 47 47 46 46 46 46 46 47 47 48 48 49 50 51 50 50 50 51 51 52 54 55 57 58 58 59 59 60 60 61 62 62 62 63 63 64 64 65 66 66 67 67 68 68 69 70 70 71 72 73 74 75 75 76 76 77 77 77 77 77 78 78 78 79 80 81 82 83 84 84
55 55 55 54 54 54 53 52 51 50 49 48 48 47 47 47 47 46 46 46 46 46 47 47 48 48 49 50 51 51 51 51 51 51 51 52 53 55 57 58 58 59 59 60 60 61 61 62 62 63 63 64 64 65 65 66 66 67 68 68 69 70 71 72 73 74 74 75 76 76 77 77 77 78 78 78 78 79 79 80 81 82 83 84 85 85
55 54 54 53 53 52 52 51 50 49 48 47 47 47 47 47 46 46 46 46 46 47 47 47 48 49 49 50 51 51 51 51 51 51 51 52 54 56 57 58 58 59 59 59 60 60 61 61 62 62 63 63 64 64 65 66 66 67 68 68 69 70 71 72 73 74 75 75 76 77 77 77 78 78 78 79 79 80 80 81 82 83 84 85 85 86
54 54 53 53 52 51 51 50 48 47 47 47 47 46 46 46 46 46 46 46 46 47 47 48 48 49 50 50 51 51 52 51 51 52 52 53 54 56 57 58 58 59 59 59 60 60 61 61 62 62 62 63 64 64 65 66 66 67 68 68 69 70 72 73 73 74 75 76 76 77 77 77 78 78 79 79 79 80 81 82 83 84 85 85 86 87
53 53 52 52 51 50 49 48 47 46 46 46 46 46 46 46 46 46 46 46 46 47 47 48 49 49 50 50 51 52 52 52 52 53 53 54 55 56 58 58 59 59 59 59 60 60 61 61 61 62 62 63 63 64 65 65 66 67 68 69 70 71 72 73 74 74 75 76 76 77 77 77 78 78 78 79 80 80 81 82 83 84 85 86 87 87
52 52 51 50 49 48 47 46 46 46 46 46 45 45 45 45 46 46 46 47 47 47 48 48 49 49 50 51 51 52 53 53 53 54 54 55 56 57 58 58 58 59 59 59 60 60 61 61 61 62 62 63 63 64 65 65 66 67 68 69 70 71 72 73 74 74 75 76 76 77 77 77 78 78 78 79 80 81 82 83 84 85 86 86 87 87
51 50 49 48 47 46 46 46 46 46 45 45 45 45 45 45 46 46 47 47 47 48 48 48 49 49 50 51 51 53 54 54 55 55 56 56 57 58 58 59 59 59 59 59 60 60 61 61 62 62 62 63 63 64 65 65 66 67 68 69 70 71 72 73 74 74 75 76 76 76 77 77 78 78 79 79 80 81 82 83 84 85 86 87 87 87
49 48 47 47 46 46 45 45 45 45 45 44 44 44 45 45 46 47 47 47 47 48 48 48 49 49 50 51 52 53 54 55 56 56 57 57 57 58 59 59 59 59 59 60 60 60 61 61 62 62 62 63 63 64 64 65 66 67 68 69 70 71 72 73 74 74 75 76 76 76 77 77 78 78 79 80 81 82 83 84 85 85 86 87 87 87
47 47 46 45 45 45 45 45 45 44 44 44 44 44 45 45 46 47 47 47 47 48 48 48 48 49 50 50 52 53 55 56 57 57 57 58 58 58 59 59 59 59 59 60 60 60 61 61 62 62 62 62 63 64 64 65 66 67 68 69 70 71 72 72 73 74 75 75 76 76 77 77 78 78 79 80 81 82 83 84 85 86 86 87 87 87
46 45 45 45 45 44 44 44 44 44 43 43 44 44 45 45 46 47 47 47 47 48 48 48 48 49 49 51 52 54 56 57 57 58 58 58 59 59 59 59 60 60 60 60 60 61 61 61 61 62 62 62 63 63 64 65 66 67 68 69 70 70 71 72 73 74 75 75 76 76 76 77 78 79 79 80 81 82 83 84 85 86 87 88 88 87
45 45 44 44 44 44 44 43 43 43 43 43 44 44 45 46 46 46 47 47 47 47 47 48 48 49 50 51 53 55 56 58 58 58 59 59 59 59 59 60 60 60 60 61 61 61 61 61 61 61 62 62 62 63 64 65 66 66 67 68 69 70 71 72 73 74 74 75 75 76 76 77 78 79 80 81 82 83 84 85 86 87 88 88 88 87
44 44 44 44 43 43 43 43 42 43 43 44 44 45 45 46 46 46 46 46 46 47 47 48 49 50 51 52 54 56 57 58 59 59 59 59 59 59 59 60 60 61 61 61 61 61 60 60 61 61 61 62 62 63 64 65 66 67 68 68 69 70 71 72 73 74 74 74 75 75 76 77 78 79 80 81 82 84 85 86 87 88 88 88 88 87
44 44 43 43 43 42 42 42 42 43 43 44 44 45 45 45 46 46 46 46 46 47 48 49 50 51 52 53 55 56 57 58 59 59 59 59 59 59 60 60 61 62 62 62 62 61 61 60 60 61 61 62 63 63 64 65 66 67 68 69 70 71 72 72 73 74 74 74 75 75 76 77 78 79 81 82 83 84 85 86 87 87 87 87 87 87
43 43 42 42 42 41 41 42 42 43 44 44 45 45 45 45 45 45 46 46 47 47 49 50 51 53 54 55 56 56 57 58 59 59 59 59 59 60 60 60 61 62 62 62 62 62 61 61 61 61 61 62 63 64 65 66 67 68 69 70 71 72 72 73 73 74 74 74 75 75 76 77 79 80 81 83 84 85 85 86 86 86 87 87 87 88
42 42 41 41 41 41 41 42 43 43 44 44 45 45 45 45 45 45 45 46 47 49 50 51 52 54 55 55 56 57 58 58 59 59 59 59 60 60 61 61 61 62 62 63 63 63 62 62 62 62 62 63 64 65 66 67 68 69 70 71 72 72 73 73 73 73 74 74 75 76 77 78 79 80 82 83 84 84 85 85 85 85 86 87 88 89
41 40 40 40 40 41 41 42 43 43 44 44 44 44 44 44 44 45 46 47 48 50 51 52 53 54 55 55 56 57 58 58 59 59 59 60 60 60 61 61 62 62 62 62 63 63 63 63 63 63 64 64 65 66 67 68 69 70 71 71 72 73 73 73 73 73 74 74 75 76 77 78 79 81 82 83 83 84 83 83 83 84 85 87 88 90
40 39 40 40 40 41 41 42 42 43 43 43 43 43 43 44 45 46 47 48 49 51 52 53 54 54 55 55 56 57 58 58 59 60 60 60 60 61 61 62 62 62 62 63 63 63 63 64 64 65 65 66 66 67 68 68 69 70 71 72 72 72 73 73 73 73 74 74 75 76 77 79 80 81 82 83 83 82 82 82 83 84 85 87 89 91
39 39 39 40 40 41 41 42 42 42 42 42 42 43 43 44 46 47 48 49 50 51 52 53 54 54 55 55 56 57 58 59 59 60 60 61 61 61 61 62 62 62 63 63 64 64 64 65 65 66 66 67 67 68 69 69 70 70 71 72 72 72 72 73 73 73 74 75 76 77 78 79 81 82 82 82 82 81 81 81 82 84 86 88 89 90
39 39 39 40 40 41 41 41 41 41 42 42 42 43 44 46 47 48 49 50 51 52 53 53 54 55 55 56 57 57 58 59 60 61 61 62 62 62 62 62 63 63 63 64 65 65 65 66 66 67 67 67 68 68 69 70 70 70 70 71 71 71 72 72 73 74 74 75 76 77 79 80 81 81 82 81 81 80 80 81 83 84 86 87 88 88
38 39 39 39 40 40 40 40 41 41 41 42 43 44 45 47 48 49 50 51 51 52 53 54 54 55 56 57 57 58 59 59 60 61 62 62 62 62 62 62 63 64 64 64 65 66 66 67 67 67 68 68 68 68 68 69 69 70 70 70 70 70 71 72 73 74 75 76 77 78 79 80 81 81 81 80 80 80 80 82 83 85 86 86 85 83
38 38 38 39 39 39 40 40 41 41 42 43 44 45 47 48 49 49 50 51 52 52 53 54 55 56 56 57 58 58 59 60 61 61 62 62 62 62 62 63 63 64 64 65 65 66 66 67 67 67 67 67 68 68 68 69 69 69 69 69 69 69 70 71 73 74 75 76 77 78 79 80 80 80 79 79 79 79 80 82 83 84 84 83 81 77
37 38 38 38 38 39 40 40 41 42 43 44 45 46 47 48 49 50 51 51 52 53 53 54 55 56 56 57 58 59 59 60 61 61 62 62 62 62 62 62 63 63 64 65 65 65 66 66 66 67 67 67 67 67 68 68 69 69 69 69 69 69 70 71 72 74 75 77 78 78 79 79 79 78 78 78 78 79 80 81 82 82 81 78 74 69
37 37 37 38 38 39 40 41 42 43 44 45 46 47 48 48 49 50 51 52 52 53 54 54 55 56 56 57 58 58 59 60 60 61 61 61 61 62 62 62 62 63 63 64 64 64 65 65 65 66 67 67 67 67 67 68 68 69 69 69 69 69 70 71 72 74 76 77 78 78 78 78 77 77 76 77 78 79 80 80 80 78 76 72 67 61
37 37 38 38 39 40 41 42 43 44 45 46 47 47 48 49 50 50 51 52 52 53 53 54 54 55 56 57 57 58 59 59 60 60 60 60 61 61 61 62 62 62 62 63 63 63 64 64 64 65 66 66 67 67 67 68 68 69 69 69 70 70 70 71 72 74 75 76 77 77 77 76 76 75 75 76 77 79 79 78 76 73 69 65 60 54
37 38 38 39 40 41 42 43 44 45 46 47 47 48 48 49 50 51 51 52 53 53 53 54 54 55 55 56 57 57 58 59 59 59 59 60 60 60 61 61 61 62 62 62 62 63 63 63 64 64 65 66 67 67 67 68 68 68 69 70 70 71 71 72 73 74 74 75 75 75 75 75 75 75 75 76 77 77 76 74 71 67 62 57 52 46
38 39 40 40 42 43 44 44 45 46 46 47 48 48 49 50 50 51 51 52 53 53 53 54 54 55 55 55 56 57 57 58 58 59 59 59 59 59 60 60 61 61 61 61 61 62 63 63 64 64 65 66 66 67 68 68 68 68 69 69 70 71 71 72 73 73 74 74 73 73 73 73 74 74 75 76 76 75 73 69 65 60 55 49 44 40
39 40 41 42 43 44 44 45 46 46 47 48 48 49 49 50 51 51 52 52 53 53 53 54 54 54 55 55 55 56 56 57 58 58 58 58 59 59 59 60 60 60 61 61 61 61 61 62 63 64 65 65 66 67 67 68 68 68 69 69 70 70 71 72 72 72 72 72 72 72 72 73 73 74 75 75 74 72 68 63 57 52 47 42 37 35
40 41 42 43 44 44 45 46 46 47 47 48 49 49 50 50 51 51 52 52 53 53 53 53 54 54 54 55 55 56 56 56 57 57 57 58 58 59 59 59 59 59 59 60 60 61 61 62 63 64 65 65 66 67 67 68 68 68 68 69 69 70 70 71 71 71 71 71 71 71 72 73 74 74 74 74 72 68 62 56 50 44 40 35 31 30
41 42 43 44 45 45 46 46 47 47 48 48 49 49 50 51 51 52 52 52 52 53 53 53 53 54 54 55 55 55 55 56 56 56 57 57 58 58 58 59 59 59 58 59 59 60 60 61 62 64 65 65 66 66 67 67 67 68 68 68 69 69 69 70 70 70 70 70 70 71 72 73 74 74 74 72 69 63 56 48 41 37 33 29 27 26
42 43 44 45 45 46 46 47 47 48 48 49 49 50 50 51 51 51 52 52 52 52 52 53 53 53 54 55 55 55 55 55 56 56 56 56 57 57 58 58 58 57 57 58 58 58 59 60 62 63 64 65 66 66 66 66 67 67 67 68 68 69 69 69 69 69 69 69 70 71 72 72 73 73 72 69 65 57 48 39 33 29 27 25 24 23
43 44 45 45 46 46 47 47 47 48 48 49 49 50 50 51 51 51 51 52 52 52 52 52 52 53 54 54 55 55 55 55 55 56 56 56 56 56 56 56 56 56 56 57 57 58 58 59 61 62 64 65 66 66 66 66 66 66 67 68 68 68 68 68 68 68 68 69 70 70 71 72 72 71 69 65 60 51 40 31 25 23 22 22 22 23
44 44 45 46 46 46 47 47 47 48 48 49 49 50 50 51 51 51 51 51 51 51 52 52 52 53 53 54 54 54 54 55 55 55 55 55 55 55 55 55 55 55 55 56 56 57 57 58 60 62 63 65 65 66 66 66 66 66 67 67 68 68 67 67 67 67 67 68 69 70 70 70 69 67 65 60 54 44 33 23 18 18 19 20 21 23
44 45 45 46 46 46 47 47 47 48 48 49 49 49 50 50 50 51 51 51 51 51 51 52 52 52 53 53 54 54 54 54 54 54 54 55 55 54 54 54 54 54 55 55 55 56 56 57 59 60 63 64 65 66 66 67 67 67 67 67 67 67 66 66 66 66 67 67 68 68 68 67 65 62 59 55 48 38 26 17 13 14 16 19 21 23
Wind_Direction
283 285 286 287 289 290 291 292 293 293 294 294 295 295 294 294 293 293 292 291 290 289 288 287 286 285 284 284 284 284 284 285 285 286 287 287 288 289 289 290 291 292 293 294 295 295 296 297 298 298 299 299 300 300 300 300 300 301 301 301 301 301 301 302 302 302 302 302 302 302 302 302 302 302 302 302 302 301 301 301 301 301 301 300 300 300
283 284 286 287 289 290 291 292 292 293 294 294 294 294 294 293 293 292 291 290 289 289 288 287 285 285 284 284 284 284 284 285 285 286 287 287 288 289 290 291 291 292 293 294 295 296 297 297 298 299 299 299 300 300 300 300 300 301 301 301 301 301 301 302 302 302 302 302 302 302 302 302 302 302 302 302 302 302 301 301 301 301 301 301 300 300
283 284 286 287 288 289 290 291 292 293 293 294 294 294 293 293 292 291 291 290 289 288 287 286 285 284 284 284 284 284 284 285 285 286 287 287 288 289 290 291 292 293 293 294 295 296 297 298 298 299 299 300 300 300 300 300 300 300 301 301 301 301 302 302 302 302 302 303 303 303 303 303 302 302 302 302 302 302 302 301 301 301 301 301 300 300
283 284 285 287 288 289 290 291 292 293 293 294 294 293 293 292 291 291 290 289 288 287 286 285 284 284 284 284 284 284 285 285 286 286 287 288 289 290 290 291 292 293 294 295 296 297 297 298 299 299 299 300 300 300 300 300 300 300 301 301 301 301 302 302 302 303 303 303 303 303 303 303 302 302 302 302 302 302 302 301 301 301 301 301 300 300
283 284 285 287 288 288 289 290 291 292 293 293 293 292 292 291 290 290 289 288 287 286 285 284 284 284 284 284 284 284 285 285 286 287 287 288 289 290 291 292 292 293 294 295 296 297 298 298 299 299 299 300 300 300 300 300 300 300 301 301 301 302 302 302 303 303 303 303 303 303 303 303 303 302 302 302 302 302 302 302 301 301 301 301 301 301
283 284 285 286 287 288 289 290 291 292 293 293 292 291 291 290 290 289 288 287 286 285 285 284 284 284 283 284 284 285 285 286 287 287 288 289 290 290 291 292 293 294 295 296 296 297 298 299 299 299 300 300 300 300 300 300 300 301 301 301 301 302 302 303 303 303 303 303 303 303 303 303 303 303 302 302 302 302 302 301 301 301 301 301 301 301
283 284 285 286 287 288 289 290 291 292 292 291 291 290 290 289 289 288 287 286 285 285 284 284 283 283 284 284 285 285 286 287 287 288 289 289 290 291 291 292 293 294 295 296 297 297 298 299 299 300 300 300 300 300 300 301 301 301 301 301 302 302 303 303 303 303 303 303 303 303 303 303 303 303 303 302 302 302 302 301 301 301 301 301 301 301
283 284 284 285 286 288 289 290 291 291 291 290 290 289 289 289 288 287 286 285 285 284 284 284 284 284 284 284 285 286 286 287 288 289 289 290 290 291 292 293 294 295 295 296 297 298 298 299 299 300 300 300 300 300 301 301 301 301 301 302 302 302 303 303 303 303 303 303 303 303 303 303 303 303 303 302 302 302 301 301 301 301 301 301 301 301
282 283 284 285 286 288 289 290 290 290 290 289 289 288 288 288 287 287 286 285 284 284 284 284 284 284 284 285 285 286 287 287 288 289 290 290 291 292 292 293 294 295 296 297 298 298 299 299 300 300 300 300 301 301 301 301 301 301 302 302 302 303 303 303 304 304 304 304 304 304 304 303 303 303 303 302 302 302 301 301 301 301 301 301 301 301
282 283 284 285 286 287 289 289 290 290 289 289 288 288 288 287 287 286 285 284 284 284 283 284 284 284 285 285 285 286 287 288 288 289 290 290 291 292 293 294 295 296 296 297 298 299 299 300 300 300 301 301 301 301 301 301 301 302 302 302 302 303 303 304 304 304 304 304 304 304 304 304 303 303 302 302 302 302 302 301 301 301 301 301 301 302
282 283 284 285 286 287 288 289 289 289 288 288 287 287 287 286 286 285 285 284 284 284 284 284 284 284 285 286 286 287 287 288 289 289 290 291 291 292 293 294 295 296 297 298 299 299 300 300 301 301 301 301 301 301 301 301 302 302 302 302 303 303 303 304 304 304 304 304 304 304 304 303 303 303 302 302 302 302 302 302 302 302 302 302 302 302
282 283 284 285 286 287 288 288 288 288 287 287 287 287 286 286 285 284 284 284 284 284 284 285 285 285 285 286 287 287 288 289 289 290 290 291 292 293 294 295 296 297 298 299 299 300 300 301 301 301 301 301 301 301 301 302 302 302 302 303 303 303 304 304 304 305 305 304 304 304 304 303 303 303 302 302 302 302 302 302 302 302 302 302 302 302
282 283 284 285 286 287 287 287 287 287 287 287 287 286 286 285 285 284 283 284 284 284 285 285 285 286 286 286 287 288 288 289 290 290 291 292 292 293 294 295 296 298 299 299 300 300 301 301 301 302 302 302 301 302 302 302 302 302 303 303 303 304 304 304 305 305 305 304 304 304 303 303 303 302 302 302 302 302 302 302 302 302 302 302 302 302
283 284 285 285 286 286 286 286 286 286 286 286 286 286 286 285 284 284 283 283 284 284 285 285 286 286 287 287 287 288 288 289 290 290 291 292 293 294 295 296 297 298 299 300 301 301 301 302 302 302 302 302 302 302 302 302 302 303 303 303 304 304 304 305 305 305 304 304 304 303 303 303 303 302 302 302 302 302 302 302 302 302 302 302 303 303
283 284 285 285 286 286 286 286 286 286 286 286 286 286 285 284 283 283 283 283 284 284 285 285 286 286 287 287 287 288 288 289 290 291 292 293 293 294 296 297 298 299 300 301 301 302 302 302 302 302 302 302 302 302 302 302 303 303 303 304 304 304 304 304 304 304 304 304 304 303 303 303 303 302 302 302 302 302 303 303 303 303 303 303 303 303
283 284 285 285 285 285 285 285 286 286 286 286 286 285 284 283 283 283 283 283 284 284 285 285 286 287 287 287 287 287 288 289 290 291 292 293 294 295 296 298 299 300 301 301 302 302 302 303 303 303 303 302 302 302 302 303 303 303 304 304 304 304 304 304 304 304 304 304 303 303 303 303 303 303 303 303 303 303 303 303 303 303 303 303 303 303
283 284 284 285 285 285 285 285 285 286 286 286 285 284 283 283 283 283 283 283 284 284 285 285 286 286 287 287 287 288 288 289 290 291 293 294 295 296 298 299 300 301 302 302 302 303 303 303 303 303 303 302 302 302 303 303 303 303 304 304 304 304 304 304 304 304 304 303 303 303 303 303 303 303 303 303 303 303 303 303 303 303 303 303 303 303
283 284 284 284 284 285 285 285 286 286 285 285 284 283 283 283 283 283 283 284 284 285 285 286 286 286 287 287 288 288 289 290 291 292 293 295 296 297 299 300 301 302 302 303 303 303 303 303 303 303 303 302 302 302 303 303 303 303 304 304 304 304 304 304 304 304 304 304 304 304 304 304 304 304 304 304 304 304 304 304 304 304 304 304 304 304
283 283 284 284 284 285 285 285 286 285 285 284 283 283 283 283 283 283 284 284 285 285 285 286 286 286 286 287 288 289 290 291 292 293 294 296 297 298 299 301 302 302 303 303 303 303 303 303 303 303 302 302 302 302 303 303 303 303 304 304 304 304 304 304 304 304 304 304 304 304 304 304 304 304 304 304 304 305 304 305 305 305 305 305 305 305
283 283 283 284 284 285 285 285 285 285 284 283 283 282 283 283 283 284 284 284 285 285 286 286 286 286 287 287 288 289 290 291 292 294 295 296 298 299 300 301 302 303 303 303 303 303 303 303 303 302 302 302 302 302 303 303 303 303 304 304 304 304 304 304 304 304 304 304 304 304 304 305 305 305 305 305 305 305 306 306 306 306 306 306 305 305
283 283 283 284 284 285 285 285 284 284 283 282 282 282 283 283 284 284 284 285 285 286 286 286 287 287 287 288 288 289 291 292 293 294 296 297 298 299 301 301 302 303 303 303 303 303 303 303 302 302 302 302 302 303 303 303 303 304 304 304 304 304 304 304 304 304 304 304 305 305 305 305 305 306 306 306 306 306 306 306 306 306 306 306 306 305
283 283 283 284 284 284 284 284 283 282 282 282 282 282 283 283 284 284 285 285 286 286 286 287 287 287 287 288 289 290 291 292 293 295 297 298 299 300 301 302 302 302 303 303 303 303 303 302 302 302 302 302 303 303 303 304 304 304 304 304 304 304 304 304 304 304 305 305 305 305 305 306 306 306 307 307 307 307 307 307 307 306 306 306 306 306
282 283 284 284 284 284 283 283 282 282 281 282 282 283 283 284 284 285 285 286 286 286 286 286 287 287 288 289 290 291 292 293 294 296 298 299 301 301 302 302 302 302 302 302 302 302 302 302 302 302 302 303 303 303 304 304 304 304 304 304 304 304 304 305 305 305 305 305 305 306 306 306 307 307 307 307 307 307 307 307 307 306 306 306 306 306
283 283 284 284 284 283 282 281 281 281 282 282 282 283 283 284 285 285 286 286 286 286 286 286 287 287 289 290 291 292 293 294 296 297 299 300 301 302 302 302 302 302 302 302 302 302 302 302 302 303 303 303 304 304 304 304 304 304 305 305 305 305 305 305 305 305 305 305 306 306 306 307 307 307 307 308 308 307 307 307 307 306 306 306 306 306
283 283 283 283 282 282 281 281 281 281 282 282 283 284 284 285 285 285 285 285 285 286 286 287 288 289 290 291 293 294 295 296 297 299 300 301 302 302 301 301 301 301 301 302 302 302 302 303 303 303 304 304 304 305 305 305 305 305 305 305 305 305 305 305 305 305 306 306 306 306 307 307 307 308 308 308 308 308 307 307 307 306 306 306 306 306
283 283 282 282 281 281 281 281 281 282 282 283 283 284 284 285 285 285 285 285 286 286 287 288 289 290 292 293 294 295 296 297 299 300 301 302 302 302 301 301 301 301 301 302 302 302 303 303 304 304 304 305 305 305 305 305 305 305 305 305 305 305 305 305 305 306 306 306 306 307 307 308 308 308 308 308 308 308 308 307 307 306 306 306 306 306
282 282 281 280 280 280 281 281 281 282 282 283 284 284 285 285 285 285 285 286 287 287 288 289 290 292 293 294 295 296 297 298 299 300 302 302 302 301 301 301 301 301 301 302 302 303 304 304 304 305 305 305 305 306 305 305 305 305 305 305 305 305 305 305 305 306 306 306 307 307 308 308 308 309 309 309 308 308 308 307 307 306 306 306 306 306
281 281 280 280 280 280 281 281 282 282 283 284 284 285 285 285 285 285 286 287 288 288 289 290 292 293 294 295 296 297 297 298 300 301 302 302 302 301 301 301 301 301 302 302 303 304 304 305 305 305 306 306 306 306 306 305 305 305 305 305 305 305 305 305 306 306 306 307 307 308 308 309 309 309 309 309 309 308 308 307 307 306 306 307 307 307
280 280 280 280 280 280 281 282 282 283 284 285 285 285 285 285 285 286 287 288 288 289 290 291 293 294 295 296 297 297 298 299 300 301 302 302 302 301 301 301 301 302 302 303 303 304 305 305 306 306 306 306 306 305 305 305 305 305 305 305 305 305 306 306 306 306 307 308 308 308 309 309 309 309 309 309 309 308 308 307 307 307 307 307 308 308
280 280 280 280 280 281 282 282 283 284 285 285 285 285 285 286 286 287 288 288 289 291 292 293 294 295 296 297 298 298 298 299 300 301 302 302 301 302 302 302 302 302 303 303 304 305 305 306 306 306 306 306 305 305 305 305 305 305 305 305 306 306 306 306 306 307 307 308 308 309 309 309 309 309 309 309 309 308 308 308 308 308 308 308 308 308
280 280 280 280 281 282 282 284 285 285 286 286 286 286 286 286 287 288 289 290 291 292 293 295 296 297 297 298 298 299 299 300 301 301 302 302 302 302 302 302 303 303 304 304 305 305 306 306 306 306 306 306 306 305 305 305 305 305 306 306 306 306 306 306 307 307 308 308 309 309 309 310 310 310 309 309 309 309 309 309 309 309 309 309 309 309
280 280 280 281 282 283 284 285 286 286 286 286 286 286 287 287 288 289 290 291 293 294 295 296 297 298 299 299 299 299 300 300 301 301 302 302 302 302 303 303 303 304 304 305 305 306 306 306 306 306 306 306 306 306 306 306 306 306 306 306 306 307 307 307 307 308 308 309 309 310 310 310 310 310 310 310 310 310 310 311 310 310 310 310 309 309
280 280 281 282 283 284 285 286 286 286 286 287 287 287 288 289 290 291 292 294 295 296 297 298 298 299 299 300 300 300 300 301 301 302 302 302 303 303 303 304 304 304 305 305 306 306 307 307 307 307 306 306 306 307 307 307 307 307 307 307 307 307 308 308 308 309 309 310 310 310 310 310 310 310 311 311 311 311 311 311 311 311 310 310 310 310
280 281 282 283 284 285 286 286 286 286 287 287 287 288 289 290 291 293 294 295 297 298 298 299 299 300 300 300 300 301 301 301 302 302 302 303 303 303 304 304 304 305 305 306 306 307 307 307 307 307 307 307 307 308 308 308 308 308 308 308 308 308 309 309 309 310 310 310 311 311 311 311 311 311 311 312 312 312 312 312 312 312 311 311 311 311
281 282 283 284 285 285 286 286 286 287 287 288 288 290 291 292 293 295 296 297 298 298 299 299 300 300 300 301 301 301 301 302 302 302 303 303 304 304 305 305 305 306 306 307 307 308 308 308 308 308 308 308 308 309 309 309 309 309 309 309 309 310 310 310 311 311 311 311 312 312 312 312 312 312 312 313 313 313 313 313 313 312 312 312 312 312
282 283 284 285 285 286 286 287 287 287 288 289 290 291 292 293 295 296 297 297 298 299 299 299 300 300 300 301 301 301 302 302 303 303 304 304 305 305 305 306 306 307 307 308 308 308 309 309 309 309 309 309 310 309 309 309 309 309 310 310 310 311 311 312 312 312 312 312 312 312 312 313 313 313 314 314 314 315 314 314 314 313 313 313 313 313
283 284 285 285 286 287 287 287 288 288 289 290 291 292 294 295 296 297 297 298 298 299 299 300 300 300 301 301 301 302 302 303 303 304 305 305 306 306 307 307 307 308 309 309 309 309 310 310 310 310 310 310 310 310 310 310 310 310 310 311 312 312 313 313 313 313 313 313 313 313 314 314 314 315 315 316 316 316 316 315 315 314 314 314 314 314
284 285 285 286 287 287 287 288 288 289 290 291 293 294 295 296 296 297 298 298 299 299 300 300 300 301 301 302 302 303 303 304 305 305 306 306 307 307 308 308 309 309 310 310 310 311 311 311 311 311 311 311 311 311 311 311 311 311 312 312 313 314 314 314 314 314 314 314 314 315 315 315 316 316 317 317 317 317 317 316 316 315 315 315 315 315
285 285 286 286 287 287 288 288 289 290 291 292 294 295 296 296 297 298 298 299 299 300 300 301 301 302 303 303 304 304 305 306 306 307 307 308 308 309 309 310 310 310 311 311 311 311 312 312 312 312 312 312 312 312 312 312 312 312 313 313 314 315 315 315 315 315 315 315 316 316 316 317 317 318 318 318 318 318 317 317 316 316 316 316 316 316
285 286 286 287 287 288 288 289 290 291 292 293 294 295 296 297 297 298 299 299 300 300 301 302 302 303 304 305 305 306 307 307 308 308 309 309 309 310 310 310 311 311 312 312 312 312 312 312 312 312 312 312 313 313 313 313 313 314 314 315 316 316 316 316 316 316 316 316 317 317 318 318 319 319 319 320 319 319 318 318 317 317 317 317 317 318
285 286 286 287 287 288 289 290 291 292 293 294 295 296 297 298 298 299 299 300 301 301 302 303 304 304 305 306 307 307 308 308 309 309 309 310 310 310 311 311 311 311 312 312 312 312 312 312 312 313 313 313 313 313 314 314 315 315 316 316 317 317 317 317 317 317 317 318 318 318 319 319 320 320 321 320 320 319 319 319 318 318 318 318 319 320
285 286 286 287 287 288 289 290 291 293 294 295 296 297 298 298 299 300 300 301 302 302 303 304 305 306 306 307 308 308 309 309 309 310 310 310 310 311 311 311 311 312 312 312 312 312 312 312 313 313 313 313 314 314 315 315 316 316 317 318 318 318 318 318 318 318 319 319 319 320 320 320 321 321 321 321 321 320 320 320 320 319 319 320 321 323
285 285 286 287 288 289 290 291 293 294 295 296 297 298 298 299 300 301 301 302 303 304 305 305 306 306 307 308 308 309 309 310 310 310 310 310 310 311 311 311 311 312 312 312 312 312 312 313 313 313 314 314 315 315 316 316 317 318 318 319 319 320 320 320 320 320 320 320 320 321 321 321 321 322 322 322 322 321 321 321 321 320 321 322 324 327
285 286 287 288 289 290 292 293 294 295 296 297 298 299 299 300 301 302 303 303 304 305 306 306 307 307 308 308 309 309 310 310 310 310 310 310 311 311 311 311 311 311 312 312 312 313 313 313 314 314 315 315 316 316 317 318 318 319 320 320 321 321 321 321 321 321 321 321 321 322 322 322 322 322 323 323 323 323 323 322 322 321 322 325 329 332
286 288 289 290 291 292 293 294 295 296 297 298 299 300 301 301 302 303 304 305 305 306 306 307 307 308 308 309 309 310 310 310 310 310 310 310 311 311 311 311 311 312 312 312 313 313 314 314 314 315 315 316 317 317 318 319 320 320 321 321 322 322 322 322 322 322 322 322 322 322 322 322 323 323 324 324 324 324 324 323 323 323 325 329 333 337
288 289 290 291 292 293 294 296 297 298 299 300 301 301 302 303 303 304 305 306 306 307 307 307 308 309 309 309 310 310 310 310 310 310 310 310 311 311 311 311 311 312 312 313 313 314 315 315 316 316 317 317 318 319 319 320 321 321 322 322 322 322 322 322 323 323 323 323 323 323 323 323 324 324 325 326 326 326 326 325 324 325 327 333 338 341
289 290 291 293 294 295 296 297 298 299 300 301 302 303 303 304 305 305 306 306 307 307 308 308 309 309 310 310 310 310 310 310 310 310 310 310 311 311 311 311 312 312 313 313 314 315 316 316 317 318 318 318 319 320 320 321 321 322 322 322 323 323 323 323 323 324 324 324 324 324 324 325 325 326 327 327 328 328 328 327 326 327 331 337 342 344
291 292 293 294 296 297 298 299 300 301 302 303 303 304 304 305 305 306 306 307 307 308 308 309 309 310 310 310 311 311 311 310 310 310 310 310 311 311 311 311 312 312 313 314 315 316 317 318 318 319 319 320 320 320 320 321 321 322 322 323 323 323 324 324 324 325 325 325 326 326 326 327 327 328 328 329 330 330 330 328 327 329 333 339 344 345
293 294 295 296 297 298 299 300 301 302 303 303 304 304 305 305 306 306 307 308 308 309 309 310 310 310 311 311 311 311 311 311 311 310 310 311 311 311 311 312 312 313 314 315 316 317 318 319 319 320 320 320 320 320 321 321 322 322 323 324 324 324 325 325 326 326 327 327 327 327 328 329 329 330 330 331 331 332 331 330 330 331 335 339 342 342
294 296 297 298 299 300 301 302 302 303 303 304 304 305 305 306 306 307 308 308 309 310 310 310 311 311 311 311 311 311 311 311 311 311 311 311 311 311 311 312 312 313 314 315 316 317 318 319 320 321 321 321 321 321 321 322 322 323 324 325 325 326 326 327 327 328 328 328 329 330 330 331 331 331 332 332 333 333 333 332 333 335 337 340 342 341
296 297 298 299 300 301 302 302 303 304 304 304 305 305 306 307 307 308 309 310 310 311 311 311 311 311 311 311 311 311 311 311 311 311 311 311 311 312 312 312 313 314 315 316 317 318 319 320 321 322 322 322 322 322 322 323 324 325 325 326 327 327 328 328 329 329 329 330 331 332 333 333 333 333 332 333 333 334 334 336 339 341 342 343 344 344